Latest Weather Observations for Coolangatta

IDQ60901

Issued at 1:25 pm EST Thursday 31 July 2014 (issued every 10 minutes, with the page automatically refreshed every 10 minutes)

About weather observations | Map of Brisbane area stations | Latest observations for Brisbane area | Other Formats
Station Details ID: 040717 Name: COOLANGATTA Lat: -28.17 Lon: 153.51 Height: 4.0 m
Data from the previous 72 hours. | See also: Recent months at Coolangatta
Date/Time
EST
Tmp

°C
App
Tmp
°C
Dew
Point
°C
Rel
Hum
%
Delta-T

°C
Wind Press
QNH
hPa
Press
MSL
hPa
Rain
since
9 am
mm
Dir
 
Spd
km/h
Gust
km/h
Spd
kts
Gust
kts
31/01:00pm 22.3 17.6 10.8 48 6.3 N 26 33 14 18 1017.1 - 0.0
31/12:30pm 22.0 17.4 9.5 45 6.7 N 24 30 13 16 1017.8 - 0.0
31/12:00pm 21.8 17.4 10.3 48 6.3 N 24 30 13 16 1018.5 1018.5 0.0
31/11:30am 21.7 16.7 8.2 42 7.1 N 24 30 13 16 1019.3 - 0.0
31/11:00am 20.8 16.2 9.7 49 5.9 N 24 28 13 15 1019.9 - 0.0
31/10:30am 20.4 17.0 11.3 56 5.0 N 20 24 11 13 1020.4 - 0.0
31/10:00am 19.6 16.2 10.6 56 4.9 N 19 22 10 12 1020.8 - 0.0
31/09:30am 18.3 16.4 10.4 60 4.2 NNE 11 17 6 9 1020.9 - 0.0
31/09:00am 16.4 14.2 10.9 70 2.9 N 13 17 7 9 1021.0 1021.0 0.0
31/08:30am 14.1 13.9 9.1 72 2.5 CALM 0 0 0 0 1020.9 - 0.0
31/08:00am 10.3 10.1 9.1 92 0.6 CALM 0 0 0 0 1020.7 - 0.0
31/07:30am 8.4 7.2 8.0 97 0.2 WSW 4 7 2 4 1020.4 - 0.0
31/07:22am 7.5 5.7 7.1 97 0.2 WSW 6 7 3 4 1020.3 - 0.0
31/07:00am 5.6 4.5 5.2 97 0.2 CALM 0 0 0 0 1020.3 - 0.0
31/06:30am 5.2 3.3 4.8 97 0.2 WSW 4 6 2 3 1020.1 - 0.0
31/06:24am 5.4 3.1 5.0 97 0.2 WSW 6 7 3 4 1020.0 - 0.0
31/06:17am 6.0 3.7 5.6 97 0.2 WSW 7 9 4 5 1019.9 - 0.0
31/06:00am 5.2 2.9 4.6 96 0.3 WSW 6 7 3 4 1019.8 1019.8 0.0
31/05:30am 5.8 3.6 5.4 97 0.2 WSW 6 7 3 4 1019.7 - 0.0
31/05:00am 6.7 5.8 6.1 96 0.3 CALM 0 0 0 0 1019.6 - 0.0
31/04:30am 5.6 4.5 5.0 96 0.3 CALM 0 0 0 0 1019.5 - 0.0
31/04:00am 5.6 4.5 4.9 95 0.3 CALM 0 0 0 0 1019.4 - 0.0
31/03:30am 6.4 5.4 5.7 95 0.3 CALM 0 6 0 3 1019.3 - 0.0
31/03:00am 6.9 4.7 6.2 95 0.3 WSW 7 9 4 5 1019.4 1019.4 0.0
31/02:51am 6.7 4.5 6.0 95 0.3 WSW 7 9 4 5 1019.4 - 0.0
31/02:49am 6.9 4.9 6.2 95 0.3 WSW 6 9 3 5 1019.5 - 0.0
31/02:34am 6.7 5.7 5.7 93 0.4 CALM 0 0 0 0 1019.6 - 0.0
31/02:30am 7.2 6.4 6.3 94 0.4 CALM 0 0 0 0 1019.6 - 0.0
31/02:00am 7.1 4.8 5.7 91 0.6 WSW 7 9 4 5 1019.8 - 0.0
31/01:30am 8.3 6.6 7.5 95 0.4 W 6 9 3 5 1019.9 - 0.0
31/01:04am 7.8 7.0 6.6 92 0.6 CALM 0 0 0 0 1020.0 - 0.0
31/01:00am 8.2 7.5 7.1 93 0.5 CALM 0 0 0 0 1020.1 - 0.0
31/12:45am 8.1 7.3 6.7 91 0.6 CALM 0 0 0 0 1020.2 - 0.0
31/12:30am 8.8 7.1 7.7 93 0.5 WSW 6 7 3 4 1020.2 - 0.0
31/12:00am 9.0 7.2 7.8 92 0.6 W 7 9 4 5 1020.3 1020.3 0.0
 
Date/Time
EST
Tmp

°C
App
Tmp
°C
Dew
Point
°C
Rel
Hum
%
Delta-T

°C
Wind Press
QNH
hPa
Press
MSL
hPa
Rain
since
9 am
mm
Dir
 
Spd
km/h
Gust
km/h
Spd
kts
Gust
kts
30/11:30pm 9.4 7.7 8.3 93 0.5 WSW 7 9 4 5 1020.6 - 0.0
30/11:00pm 8.4 6.4 6.9 90 0.7 WSW 7 9 4 5 1020.7 - 0.0
30/10:30pm 8.8 6.6 6.2 84 1.2 WSW 7 9 4 5 1020.7 - 0.0
30/10:00pm 9.8 7.2 7.9 88 0.9 WSW 11 13 6 7 1021.0 - 0.0
30/09:30pm 10.5 9.0 8.6 88 0.9 WSW 6 7 3 4 1020.9 - 0.0
30/09:00pm 10.9 9.3 8.8 87 1.0 WSW 7 9 4 5 1020.9 1020.9 0.0
30/08:30pm 10.7 9.5 8.1 84 1.3 SSW 4 6 2 3 1020.9 - 0.0
30/08:00pm 11.2 9.8 8.8 85 1.2 WSW 6 11 3 6 1020.9 - 0.0
30/07:30pm 11.5 9.4 8.4 81 1.5 WSW 9 13 5 7 1020.7 - 0.0
30/07:00pm 11.3 10.5 8.2 81 1.5 WSW 2 7 1 4 1020.6 - 0.0
30/06:30pm 12.0 11.6 8.3 78 1.8 CALM 0 6 0 3 1020.4 - 0.0
30/06:00pm 13.0 11.0 8.5 74 2.2 WSW 9 9 5 5 1020.1 1020.1 0.0
30/05:30pm 14.3 13.9 8.3 67 3.0 CALM 0 0 0 0 1019.9 - 0.0
30/05:00pm 18.0 16.2 8.0 52 5.1 NE 7 7 4 4 1019.7 - 0.0
30/04:30pm 19.4 16.9 8.1 48 5.8 ENE 11 13 6 7 1019.5 - 0.0
30/04:00pm 19.6 17.2 8.6 49 5.7 NNE 11 13 6 7 1019.3 - 0.0
30/03:30pm 19.7 16.8 8.1 47 6.0 ENE 13 17 7 9 1019.2 - 0.0
30/03:00pm 20.3 17.4 8.0 45 6.3 ENE 13 19 7 10 1019.2 1019.2 0.0
30/02:30pm 20.4 16.9 7.1 42 6.8 ENE 15 19 8 10 1019.3 - 0.0
30/02:00pm 20.7 16.9 5.9 38 7.4 ENE 15 19 8 10 1019.3 - 0.0
30/01:30pm 20.3 16.4 5.5 38 7.3 ENE 15 19 8 10 1019.6 - 0.0
30/01:00pm 20.4 16.3 6.0 39 7.2 NE 17 20 9 11 1019.7 - 0.0
30/12:30pm 20.0 16.2 6.0 40 7.0 NE 15 19 8 10 1020.2 - 0.0
30/12:00pm 20.4 17.3 7.1 42 6.7 NE 13 17 7 9 1020.7 1020.7 0.0
30/11:30am 20.9 18.1 3.2 31 8.4 N 7 11 4 6 1021.2 - 0.0
30/11:00am 20.1 16.5 2.9 32 8.1 NNE 11 13 6 7 1021.8 - 0.0
30/10:30am 20.0 17.1 4.9 37 7.3 NE 9 13 5 7 1022.2 - 0.0
30/10:00am 19.5 16.4 3.6 35 7.5 NNE 9 11 5 6 1022.6 - 0.0
30/09:30am 19.1 17.2 4.8 39 6.9 SE 4 9 2 5 1022.7 - 0.0
30/09:00am 16.8 16.0 6.6 51 5.0 CALM 0 0 0 0 1022.9 1022.9 0.0
30/08:30am 12.9 11.2 7.6 70 2.6 S 6 7 3 4 1023.0 - 0.0
30/08:00am 10.2 8.2 6.4 77 1.8 W 6 7 3 4 1022.7 - 0.0
30/07:30am 7.6 6.1 6.7 94 0.4 S 4 7 2 4 1022.6 - 0.0
30/07:00am 5.4 3.1 4.8 96 0.3 SSE 6 9 3 5 1022.3 - 0.0
30/06:30am 4.0 2.1 2.8 92 0.5 ENE 2 6 1 3 1022.1 - 0.0
30/06:00am 4.9 3.5 3.7 92 0.5 CALM 0 0 0 0 1021.7 1021.7 0.0
30/05:30am 6.3 4.6 5.7 96 0.3 SW 4 7 2 4 1021.5 - 0.0
30/05:01am 5.7 3.5 5.1 96 0.3 SW 6 7 3 4 1021.3 - 0.0
30/05:00am 5.9 3.7 5.3 96 0.3 SW 6 7 3 4 1021.3 - 0.0
30/04:30am 5.1 3.9 4.5 96 0.3 CALM 0 0 0 0 1021.0 - 0.0
30/04:00am 5.6 3.7 4.9 95 0.3 SSW 4 7 2 4 1020.9 - 0.0
30/03:30am 6.2 4.4 5.6 96 0.3 S 4 6 2 3 1020.9 - 0.0
30/03:00am 6.9 4.9 6.3 96 0.3 SW 6 7 3 4 1020.8 1020.8 0.0
30/02:44am 6.8 5.2 6.4 97 0.2 SSW 4 7 2 4 1020.8 - 0.0
30/02:33am 7.4 5.5 6.8 96 0.3 SSW 6 9 3 5 1020.9 - 0.0
30/02:30am 7.0 5.4 6.4 96 0.3 SSW 4 9 2 5 1020.9 - 0.0
30/02:00am 6.2 4.0 5.5 95 0.3 S 6 7 3 4 1021.1 - 0.0
30/01:56am 7.4 5.5 6.7 95 0.3 S 6 9 3 5 1021.1 - 0.0
30/01:30am 7.6 5.7 6.9 95 0.3 SSW 6 7 3 4 1021.3 - 0.0
30/01:00am 8.4 6.6 7.8 96 0.3 SW 7 9 4 5 1021.6 - 0.0
30/12:30am 8.1 6.1 7.3 95 0.4 S 7 9 4 5 1021.7 - 0.0
30/12:08am 7.7 5.6 6.8 94 0.4 SW 7 9 4 5 1021.7 - 0.0
30/12:00am 7.9 6.8 6.8 93 0.5 SSW 2 7 1 4 1021.7 1021.7 0.0
 
Date/Time
EST
Tmp

°C
App
Tmp
°C
Dew
Point
°C
Rel
Hum
%
Delta-T

°C
Wind Press
QNH
hPa
Press
MSL
hPa
Rain
since
9 am
mm
Dir
 
Spd
km/h
Gust
km/h
Spd
kts
Gust
kts
29/11:49pm 7.5 6.7 6.6 94 0.4 CALM 0 6 0 3 1021.7 - 0.0
29/11:44pm 8.4 7.1 7.5 94 0.4 SSW 4 7 2 4 1021.7 - 0.0
29/11:30pm 8.0 6.1 6.9 93 0.5 SW 6 9 3 5 1021.7 - 0.0
29/11:22pm 7.7 6.9 6.3 91 0.6 CALM 0 0 0 0 1021.8 - 0.0
29/11:00pm 8.7 7.3 7.3 91 0.7 SW 4 7 2 4 1021.9 - 0.0
29/10:30pm 8.7 6.9 7.0 89 0.8 SSW 6 7 3 4 1021.9 - 0.0
29/10:00pm 10.2 9.9 8.5 89 0.8 CALM 0 6 0 3 1021.9 - 0.0
29/09:30pm 9.8 8.3 8.4 91 0.7 SW 6 7 3 4 1021.6 - 0.0
29/09:00pm 9.9 8.1 7.3 84 1.2 SW 6 6 3 3 1021.3 1021.3 0.0
29/08:30pm 10.8 9.1 8.2 84 1.3 WSW 7 9 4 5 1021.1 - 0.0
29/08:00pm 10.3 8.5 7.2 81 1.5 SW 6 9 3 5 1021.0 - 0.0
29/07:30pm 11.2 9.3 7.5 78 1.8 WSW 7 9 4 5 1020.7 - 0.0
29/07:00pm 11.8 10.0 8.1 78 1.8 WSW 7 9 4 5 1020.6 - 0.0
29/06:30pm 12.1 9.8 7.6 74 2.2 WSW 9 11 5 6 1020.4 - 0.0
29/06:00pm 13.3 11.2 8.4 72 2.4 WSW 9 11 5 6 1020.5 1020.5 0.0
29/05:30pm 14.0 12.6 7.1 63 3.4 E 4 6 2 3 1020.2 - 0.0
29/05:00pm 17.3 14.9 6.8 50 5.2 ESE 9 11 5 6 1020.1 - 0.0
29/04:30pm 18.7 16.0 7.2 47 5.8 ENE 11 15 6 8 1019.8 - 0.0
29/04:00pm 19.2 16.0 7.0 45 6.2 ENE 13 15 7 8 1019.7 - 0.0
29/03:30pm 19.5 15.8 6.3 42 6.6 ENE 15 19 8 10 1019.7 - 0.0
29/03:00pm 19.7 16.2 7.4 45 6.3 ENE 15 19 8 10 1019.9 1019.9 0.0
29/02:30pm 19.8 16.2 6.9 43 6.5 ENE 15 20 8 11 1019.9 - 0.0
29/02:00pm 20.1 16.3 7.5 44 6.5 ENE 17 20 9 11 1020.0 - 0.0
29/01:30pm 20.1 16.3 7.5 44 6.5 ENE 17 22 9 12 1020.2 - 0.0
29/01:00pm 20.1 16.7 7.5 44 6.5 NE 15 20 8 11 1020.3 - 0.0
29/12:30pm 20.1 15.7 6.4 41 6.9 NE 19 22 10 12 1020.5 - 0.0
29/12:00pm 19.8 15.3 6.2 41 6.8 NNE 19 20 10 11 1020.8 1020.8 0.0
29/11:30am 20.2 16.6 3.0 32 8.1 SE 11 19 6 10 1021.4 - 0.0
29/11:00am 19.7 15.7 2.6 32 7.9 SSE 13 20 7 11 1022.0 - 0.0
29/10:30am 19.3 15.8 5.4 40 6.8 SSE 13 17 7 9 1022.1 - 0.0
29/10:00am 19.1 17.0 6.6 44 6.2 SW 7 9 4 5 1022.3 - 0.0
29/09:30am 18.4 16.8 6.3 45 6.0 W 4 9 2 5 1022.4 - 0.0
29/09:00am 16.9 14.7 6.1 49 5.2 NNW 7 11 4 6 1022.5 1022.5 0.0
29/08:30am 14.9 13.4 7.0 59 3.9 W 4 7 2 4 1022.5 - 0.0
29/08:00am 12.4 11.7 6.9 69 2.6 CALM 0 0 0 0 1022.2 - 0.0
29/07:30am 9.9 7.6 7.5 85 1.1 WSW 9 11 5 6 1021.9 - 0.0
29/07:00am 7.6 5.4 6.1 90 0.7 WSW 7 9 4 5 1021.7 - 0.0
29/06:30am 7.2 4.9 5.7 90 0.7 WSW 7 9 4 5 1021.4 - 0.0
29/06:00am 7.9 5.9 6.4 90 0.7 SW 6 11 3 6 1021.1 1021.1 0.0
29/05:30am 8.0 4.7 6.3 89 0.8 WSW 13 15 7 8 1020.8 - 0.0
29/05:00am 8.1 5.1 6.2 88 0.9 WNW 11 13 6 7 1020.5 - 0.0
29/04:30am 10.2 8.2 7.1 81 1.5 W 7 9 4 5 1020.3 - 0.0
29/04:00am 12.2 9.2 7.9 75 2.1 NW 13 15 7 8 1019.9 - 0.0
29/03:30am 11.8 9.2 7.9 77 1.9 NNW 11 13 6 7 1019.8 - 0.0
29/03:00am 11.7 9.0 8.9 83 1.4 NNW 13 15 7 8 1019.9 1019.9 0.0
29/02:30am 12.6 11.1 9.1 79 1.8 NW 7 9 4 5 1020.0 - 0.0
29/02:00am 13.3 11.1 9.4 77 2.0 NW 11 17 6 9 1020.2 - 0.0
29/01:30am 14.3 11.5 9.9 75 2.3 NW 15 17 8 9 1020.4 - 0.0
29/01:00am 14.4 11.9 9.8 74 2.4 WNW 13 17 7 9 1020.6 - 0.0
29/12:30am 15.0 12.1 9.8 71 2.7 WNW 15 19 8 10 1021.0 - 0.0
29/12:00am 14.6 12.0 9.4 71 2.7 WNW 13 17 7 9 1021.3 1021.3 0.0
 
Date/Time
EST
Tmp

°C
App
Tmp
°C
Dew
Point
°C
Rel
Hum
%
Delta-T

°C
Wind Press
QNH
hPa
Press
MSL
hPa
Rain
since
9 am
mm
Dir
 
Spd
km/h
Gust
km/h
Spd
kts
Gust
kts
28/11:30pm 14.6 12.0 9.4 71 2.7 WNW 13 17 7 9 1021.6 - 0.0
28/11:00pm 14.9 12.0 9.5 70 2.8 WNW 15 19 8 10 1021.8 - 0.0
28/10:30pm 14.9 12.1 10.1 73 2.5 WNW 15 20 8 11 1021.9 - 0.0
28/10:00pm 11.3 9.9 9.4 88 1.0 W 7 9 4 5 1022.0 - 0.0
28/09:30pm 11.6 10.2 9.7 88 1.0 W 7 9 4 5 1022.2 - 0.0
28/09:00pm 12.6 11.7 10.5 87 1.1 WSW 6 7 3 4 1022.3 1022.3 0.0
28/08:30pm 13.2 11.6 10.2 82 1.6 WSW 9 11 5 6 1022.2 - 0.0
28/08:00pm 14.5 12.9 10.3 76 2.2 W 9 13 5 7 1021.8 - 0.0
28/07:30pm 17.3 14.8 11.1 67 3.3 NNW 15 26 8 14 1021.6 - 0.0
28/07:00pm 18.1 14.9 11.4 65 3.7 N 19 26 10 14 1021.4 - 0.0
28/06:30pm 18.4 15.1 11.7 65 3.7 N 20 28 11 15 1021.1 - 0.0
28/06:00pm 18.6 15.1 10.9 61 4.2 N 20 26 11 14 1020.8 1020.8 0.0
28/05:30pm 18.7 15.1 10.5 59 4.4 N 20 28 11 15 1020.7 - 0.0
28/05:00pm 19.2 15.2 10.5 57 4.7 N 22 28 12 15 1020.5 - 0.0
28/04:30pm 19.8 15.8 10.5 55 5.0 NNE 22 30 12 16 1020.1 - 0.0
28/04:00pm 20.3 16.0 10.7 54 5.2 NNE 24 32 13 17 1020.0 - 0.0
28/03:30pm 21.0 17.4 11.9 56 5.1 NNE 22 30 12 16 1020.1 - 0.0
28/03:00pm 22.4 18.9 7.0 37 7.9 NW 15 22 8 12 1020.1 1020.1 0.0
28/02:30pm 22.0 17.4 6.3 36 8.0 NW 20 30 11 16 1020.3 - 0.0
28/02:00pm 22.5 18.1 6.7 36 8.1 NNW 19 30 10 16 1020.6 - 0.0
28/01:30pm 22.1 17.4 5.9 35 8.2 NW 20 32 11 17 1020.7 - 0.0

Latest Capital City Observations: Canberra | Sydney | Melbourne | Brisbane | Adelaide | Perth | Hobart | Darwin

Other Formats:

Comma delimited format used in spreadsheet applications
http://www.bom.gov.au/fwo/IDQ60901/IDQ60901.94592.axf

JavaScript Object Notation format (JSON) in row-major order
http://www.bom.gov.au/fwo/IDQ60901/IDQ60901.94592.json